Lexington Weather

Lexington, Massachusetts, USA

34°F
4/16/2021 10:47am 
  • Lexington Conditions: Snow, Fog, Overcast
  • Temperature: 34.0°F / 1.1°CWarmer 0.2°F than last hour.
  • Dew Point: 32.7°FIncreased 0.2°Fsince last hour.
  • Relative Humidity: 95
  • Wind: Wind from N N 1 mph, 10-min avg: Calm, gust: 3 mph
  • Barometer: 29.47 inFalling 0.02  inHg/hr Falling Slowly
  • Visibility: ½ mile
  • Snow Today: 1.3 in
  •   

Regional Weather Roundup
for Boston / Norton, MA

        
000
ASUS41 KBOX 150704
RWRBOX

REGIONAL WEATHER ROUNDUP
NATIONAL WEATHER SERVICE BOSTON/NORTON MA
300 AM EDT THU APR 15 2021

NOTE:  "FAIR" INDICATES FEW OR NO CLOUDS BELOW 12,000 FEET WITH NO 
SIGNIFICANT WEATHER AND/OR OBSTRUCTIONS TO VISIBILITY.

MAZALL-150800-
EASTERN MASSACHUSETTS
  
CITY           SKY/WX    TMP DP  RH WIND       PRES   REMARKS
BOSTON         PTCLDY    48  39  71 SE9       29.92F                  
BEVERLY        NOT AVBL                                               
LAWRENCE       CLOUDY    45  39  79 CALM      29.93S                  
BEDFORD        MOCLDY    47  38  71 SE3       29.90F                  
BLUE HILL        N/A     43  39  86 S9        29.88F                  
NORWOOD        PTCLDY    46  40  79 CALM      29.91F                  
MARSHFIELD     CLOUDY    45  39  81 CALM      29.92F                  
PLYMOUTH       CLOUDY    42  37  82 CALM      29.91F                  
TAUNTON          N/A    N/A N/A N/A MISG      29.91F                  
NEW BEDFORD    PTCLDY    44  36  73 E5        29.91S                  
$$

MAZALL-150800-
CAPE COD AND THE ISLANDS
  
CITY           SKY/WX    TMP DP  RH WIND       PRES   REMARKS
FALMOUTH       NOT AVBL                                               
HYANNIS        PTCLDY    43  38  82 S3        29.91S                  
CHATHAM        CLOUDY    42  38  85 S3        29.92F                  
PROVINCETOWN     N/A     42  38  85 S5        29.93F                  
NANTUCKET      MOCLDY    43  40  89 SE9       29.92F                  
MARTHAS VNYRD  CLOUDY    44  39  82 SE8       29.91F                  
$$
 
MAZALL-150800-
CENTRAL AND WESTERN MASSACHUSETTS
  
CITY           SKY/WX    TMP DP  RH WIND       PRES   REMARKS
WORCESTER      CLOUDY    44  37  76 SE9       29.88F                  
FITCHBURG      CLOUDY    47  37  68 SE5       29.90F                  
ORANGE         CLOUDY    48  41  76 SE6       29.87F                  
SPRINGFIELD    CLOUDY    47  41  78 SE6       29.85F                  
WESTFIELD      CLOUDY    48  42  80 S7        29.85F                  
NORTH ADAMS    CLOUDY    55  43  63 E9        29.80F                  
PITTSFIELD     CLOUDY    51  44  77 NE3       29.79F                  
$$
 
RIZALL-150800-
RHODE ISLAND
  
CITY           SKY/WX    TMP DP  RH WIND       PRES   REMARKS
PROVIDENCE     CLOUDY    46  40  79 SE6       29.91F                  
NEWPORT        CLOUDY    44  38  79 SE6       29.90F                  
BLOCK ISLAND   CLOUDY    43  40  89 SE10      29.90S                  
SMITHFIELD     CLOUDY    44  42  93 VRB3      29.90F                  
WESTERLY       CLOUDY    43  40  89 E7        29.89F                  
$$
 
CTZALL-150800-
CONNECTICUT
  
CITY           SKY/WX    TMP DP  RH WIND       PRES   REMARKS
BRADLEY INTL   CLOUDY    48  42  80 SE6       29.86F                  
HARTFORD       CLOUDY    50  43  77 E3        29.86F                  
BRIDGEPORT     LGT RAIN  48  46  93 NE14      29.84F                  
DANBURY        CLOUDY    51  46  83 E3        29.84F                  
GROTON         CLOUDY    46  42  86 E12       29.88F                  
NEW HAVEN      CLOUDY    50  47  89 E10       29.85F                  
CHESTER        CLOUDY    46  45  93 E7        29.86F                  
MERIDEN        CLOUDY    49  45  86 SE5       29.86F                  
WILLIMANTIC    CLOUDY    47  40  76 VRB3      29.88F                  
OXFORD         FOG       46  46 100 SE7       29.84F VSB 3/4          
$$

MEZ002-015-021-024-NHZ003-005-008-011-012-014-VTZ005-008-150800-
NORTHERN NEW ENGLAND
  
CITY           SKY/WX    TMP DP  RH WIND       PRES   REMARKS
PORTLAND ME    PTCLDY    39  38  96 CALM      29.92F                  
BANGOR ME      CLEAR     34  30  85 SE3       29.94F                  
CONCORD NH     CLOUDY    43  38  82 CALM      29.91F                  
MANCHESTER NH  MOCLDY    46  38  73 SE3       29.90S                  
NASHUA NH      PTCLDY    46  39  76 CALM      29.92S                  
PORTSMOUTH NH  CLOUDY    44  38  80 E3        29.93F                  
JAFFREY NH     CLOUDY    43  38  82 CALM      29.87F                  
KEENE NH       MOCLDY    47  39  74 VRB3      29.87F                  
BURLINGTON VT  LGT RAIN  54  41  61 E7        29.77F                  
MT. WASHINGTON MOCLDY    32  30  93 S9          N/A  WCI  24          
$$

NYZ052-076-150800-
EASTERN NEW YORK
  
CITY           SKY/WX    TMP DP  RH WIND       PRES   REMARKS
ALBANY         CLOUDY    55  47  74 E3        29.78F                  
NEW YORK CITY  CLOUDY    51  46  83 NE10      29.82F                  
$$
 
ANZALL-150800-
MARINE OBSERVATIONS
  
STATION/POSITION TIME  TEMP    WIND        PRES    VSBY  WAVE
                       AIR SEA DIR/SP/G                  HT/PER
                 (UTC) (F)     (DEG/KT/KT) (MB)    (MI)  (FT/S)
BOSTON BUOY      0640   44 44  160/  6/  6 1013.5F
BUZZARDS BAY     0600          130/ 11/ 13 1014.0F
NANTUCKET SOUND  0640      47                N/A
MASS BAY-STELLWA 0604   45     180/ 10/ 12 1012.6F  1 7/8  5/11
ISLE OF SHOALS   0600   44     170/  7/  8 1013.2F
S OF BLOCK IS    0626      45                N/A           3/11
$$

......................KEY.........................
  SKY/WX - SKY CONDITION/PRESENT WEATHER
  TMP    - TEMPERATURE IN FAHRENHEIT
  DWPT   - DEWPOINT IN FAHRENHEIT
  RH     - RELATIVE HUMIDITY IN PERCENT
  WIND   - DIRECTION AND SPEED IN MPH
  PRES   - MEAN SEA LEVEL PRESSURE IN INCHES OF HG
  WCI    - WIND CHILL INDEX
  VSB    - VISIBILITY IN MILES
  HX     - HEAT INDEX
  TC     - TEMPERATURE IN CELSIUS
  VRB    - VARIABLE WIND DIRECTION
  N/A    - NOT AVAILABLE
  
      

Other recent Regional Weather Roundups

Fri Apr 16, 10:05am

Fri Apr 16, 9:04am

Fri Apr 16, 8:04am

Fri Apr 16, 7:04am

Fri Apr 16, 6:04am

Fri Apr 16, 5:04am

Fri Apr 16, 4:04am

Fri Apr 16, 3:04am

Fri Apr 16, 2:04am

Fri Apr 16, 1:04am

Fri Apr 16, 12:04am

Thu Apr 15, 11:05pm

Thu Apr 15, 10:04pm

Thu Apr 15, 9:04pm

Thu Apr 15, 8:04pm

Thu Apr 15, 7:05pm

Thu Apr 15, 6:04pm

Thu Apr 15, 5:05pm

Thu Apr 15, 4:04pm

Thu Apr 15, 3:05pm

Thu Apr 15, 2:04pm

Thu Apr 15, 1:05pm

Thu Apr 15, 12:04pm

Thu Apr 15, 11:04am

Thu Apr 15, 10:05am

Thu Apr 15, 9:04am

Thu Apr 15, 8:04am

Thu Apr 15, 7:04am

Thu Apr 15, 6:04am

Thu Apr 15, 5:04am

Thu Apr 15, 4:04am

Thu Apr 15, 2:04am

Thu Apr 15, 1:04am

Thu Apr 15, 12:04am

Wed Apr 14, 11:04pm

Wed Apr 14, 10:04pm

Wed Apr 14, 9:04pm

Wed Apr 14, 8:04pm

Wed Apr 14, 7:04pm

Wed Apr 14, 6:04pm

Wed Apr 14, 5:05pm

Wed Apr 14, 4:04pm

Wed Apr 14, 3:05pm

Wed Apr 14, 2:04pm

Wed Apr 14, 1:05pm

Wed Apr 14, 12:04pm

Wed Apr 14, 11:04am

Wed Apr 14, 10:04am

Wed Apr 14, 9:04am

Wed Apr 14, 8:04am

Wed Apr 14, 7:04am

Wed Apr 14, 6:04am

Wed Apr 14, 5:04am

Wed Apr 14, 4:04am

Wed Apr 14, 3:04am

Wed Apr 14, 2:04am

Wed Apr 14, 1:04am

Wed Apr 14, 12:04am

Tue Apr 13, 11:04pm

Tue Apr 13, 10:05pm

Tue Apr 13, 9:05pm

Tue Apr 13, 8:05pm

Tue Apr 13, 7:04pm

Tue Apr 13, 6:04pm

Tue Apr 13, 5:05pm

Tue Apr 13, 4:04pm

Tue Apr 13, 3:04pm

Tue Apr 13, 2:05pm

Tue Apr 13, 1:04pm

Tue Apr 13, 12:05pm

Tue Apr 13, 11:05am

Tue Apr 13, 10:04am

Tue Apr 13, 9:04am

Tue Apr 13, 8:04am

Tue Apr 13, 7:04am

Tue Apr 13, 6:04am

Tue Apr 13, 5:04am

Tue Apr 13, 4:04am

Tue Apr 13, 3:04am

Tue Apr 13, 2:04am

Tue Apr 13, 1:04am

Tue Apr 13, 12:05am

Mon Apr 12, 11:04pm

Mon Apr 12, 10:04pm

Mon Apr 12, 9:04pm

Mon Apr 12, 8:04pm

Mon Apr 12, 7:05pm

Mon Apr 12, 6:04pm

Mon Apr 12, 5:04pm

Mon Apr 12, 4:04pm

Mon Apr 12, 3:05pm

Mon Apr 12, 2:04pm

Mon Apr 12, 1:05pm

Mon Apr 12, 12:04pm

Mon Apr 12, 11:04am

Mon Apr 12, 10:04am

Mon Apr 12, 9:04am

Mon Apr 12, 8:04am

Mon Apr 12, 7:04am

Mon Apr 12, 6:04am

Mon Apr 12, 5:04am

Mon Apr 12, 4:04am

Mon Apr 12, 3:04am

Mon Apr 12, 2:04am

Mon Apr 12, 1:05am

Mon Apr 12, 12:04am

Sun Apr 11, 11:04pm

Sun Apr 11, 10:04pm

Sun Apr 11, 9:04pm

Sun Apr 11, 8:04pm

Sun Apr 11, 7:04pm

Sun Apr 11, 6:05pm

Sun Apr 11, 5:05pm

Sun Apr 11, 4:04pm

Sun Apr 11, 3:05pm

Sun Apr 11, 2:05pm

Sun Apr 11, 1:05pm

Sun Apr 11, 12:04pm

Sun Apr 11, 11:05am

Sun Apr 11, 10:05am

Sun Apr 11, 9:04am

Sun Apr 11, 8:04am

Sun Apr 11, 7:04am

Sun Apr 11, 6:04am

Sun Apr 11, 5:04am

Sun Apr 11, 4:04am

Sun Apr 11, 3:04am

Sun Apr 11, 2:04am

Sun Apr 11, 1:05am

Sun Apr 11, 12:04am

Sat Apr 10, 11:05pm

Sat Apr 10, 10:04pm

Sat Apr 10, 9:04pm

Sat Apr 10, 8:04pm

Sat Apr 10, 7:05pm

Sat Apr 10, 6:04pm

Sat Apr 10, 5:04pm

Sat Apr 10, 4:04pm

Sat Apr 10, 3:04pm

Sat Apr 10, 2:05pm

Sat Apr 10, 1:04pm

Sat Apr 10, 12:04pm

Sat Apr 10, 11:04am

Sat Apr 10, 10:04am

Sat Apr 10, 9:04am

Sat Apr 10, 8:04am

Sat Apr 10, 7:04am

Sat Apr 10, 6:04am

Sat Apr 10, 5:04am

Sat Apr 10, 4:04am

Sat Apr 10, 3:04am

Sat Apr 10, 2:04am

Sat Apr 10, 1:05am

Sat Apr 10, 12:04am

Fri Apr 9, 11:04pm

Fri Apr 9, 10:05pm

Fri Apr 9, 9:04pm

Fri Apr 9, 8:05pm

Fri Apr 9, 7:05pm

Fri Apr 9, 6:04pm

Fri Apr 9, 5:04pm

Fri Apr 9, 4:05pm

Fri Apr 9, 3:05pm

Fri Apr 9, 2:04pm

Fri Apr 9, 1:04pm

Fri Apr 9, 12:04pm

Fri Apr 9, 11:05am

Meta data:

ID: 9e8c950b-598f-46d3-a5d6-17eead0740cc
Link: https://api.weather.gov/products/9e8c950b-598f-46d3-a5d6-17eead0740cc